JBU693 KSJC-KLAX

Flight info

Callsign JBU693
Flight time 0h 52m
Altitude 35000
Route SPTNS1 VLREE EBAYE BURGL IRNMN2
Aircraft A321/M-SDE3FGHIRWY/LB1

Departure

Time 2026-04-25 03:36
Airport Norman Y. Mineta San Jose International Airport (KSJC)

Arrival

Time 2026-04-25 04:28
Airport Los Angeles International Airport (KLAX)
Time Latitude Longitude Altitude Speed Heading
2026-04-25 03:16 37.36595 -121.92634 50 ft 0 kts 49°
2026-04-25 03:27 37.36591 -121.92640 50 ft 2 kts 50°
2026-04-25 03:28 37.36579 -121.92660 51 ft 3 kts 55°
2026-04-25 03:28 37.36568 -121.92681 48 ft 3 kts 64°
2026-04-25 03:28 37.36561 -121.92704 47 ft 3 kts 81°
2026-04-25 03:28 37.36560 -121.92727 47 ft 3 kts 118°
2026-04-25 03:29 37.36565 -121.92736 48 ft 0 kts 139°
2026-04-25 03:30 37.36563 -121.92734 48 ft 1 kts 139°
2026-04-25 03:30 37.36556 -121.92726 46 ft 2 kts 139°
2026-04-25 03:31 37.36543 -121.92712 50 ft 3 kts 139°
2026-04-25 03:31 37.36513 -121.92698 54 ft 5 kts 174°
2026-04-25 03:31 37.36475 -121.92704 53 ft 9 kts 184°
2026-04-25 03:31 37.36401 -121.92655 56 ft 14 kts 139°
2026-04-25 03:32 37.36322 -121.92568 47 ft 17 kts 139°
2026-04-25 03:32 37.36230 -121.92467 53 ft 18 kts 139°
2026-04-25 03:32 37.36127 -121.92353 52 ft 21 kts 139°
2026-04-25 03:32 37.36011 -121.92227 51 ft 22 kts 139°
2026-04-25 03:33 37.35892 -121.92097 55 ft 23 kts 139°
2026-04-25 03:33 37.35773 -121.91967 55 ft 22 kts 139°
2026-04-25 03:33 37.35651 -121.91833 61 ft 24 kts 139°
2026-04-25 03:33 37.35529 -121.91699 55 ft 21 kts 139°
2026-04-25 03:34 37.35430 -121.91590 57 ft 11 kts 139°
2026-04-25 03:34 37.35371 -121.91526 63 ft 12 kts 139°
2026-04-25 03:34 37.35311 -121.91480 58 ft 11 kts 173°
2026-04-25 03:34 37.35262 -121.91544 63 ft 11 kts 270°
2026-04-25 03:35 37.35308 -121.91618 58 ft 13 kts 319°
2026-04-25 03:35 37.35524 -121.91855 65 ft 82 kts 319°
2026-04-25 03:35 37.36145 -121.92532 52 ft 151 kts 319°
2026-04-25 03:35 37.36982 -121.93438 638 ft 160 kts 321°
2026-04-25 03:36 37.37833 -121.94368 1384 ft 164 kts 317°
2026-04-25 03:36 37.38752 -121.95387 1723 ft 189 kts 316°
2026-04-25 03:36 37.39806 -121.96556 2091 ft 216 kts 315°
2026-04-25 03:36 37.41186 -121.97534 2577 ft 246 kts 347°
2026-04-25 03:37 37.42938 -121.97281 3180 ft 267 kts 26°
2026-04-25 03:37 37.44316 -121.95722 3937 ft 273 kts 62°
2026-04-25 03:37 37.44755 -121.93437 4803 ft 272 kts 97°
2026-04-25 03:37 37.44120 -121.91278 5641 ft 270 kts 130°
2026-04-25 03:38 37.42744 -121.89678 6496 ft 272 kts 146°
2026-04-25 03:38 37.41200 -121.88262 7315 ft 277 kts 145°
2026-04-25 03:38 37.39627 -121.86826 8166 ft 282 kts 145°
2026-04-25 03:38 37.38025 -121.85367 9038 ft 286 kts 145°
2026-04-25 03:39 37.36431 -121.83841 9885 ft 291 kts 140°
2026-04-25 03:39 37.34947 -121.82059 10440 ft 307 kts 134°
2026-04-25 03:39 37.33442 -121.79997 10734 ft 329 kts 131°
2026-04-25 03:39 37.31856 -121.77862 11341 ft 338 kts 135°
2026-04-25 03:40 37.30185 -121.75808 12120 ft 342 kts 136°
2026-04-25 03:40 37.28442 -121.73748 12919 ft 346 kts 136°
2026-04-25 03:40 37.26656 -121.71697 13714 ft 350 kts 136°
2026-04-25 03:40 37.24835 -121.69638 14393 ft 355 kts 137°
2026-04-25 03:41 37.22987 -121.67558 15055 ft 360 kts 137°
2026-04-25 03:41 37.21109 -121.65447 15697 ft 365 kts 138°
2026-04-25 03:41 37.19202 -121.63306 16366 ft 370 kts 139°
2026-04-25 03:41 37.17274 -121.61138 17049 ft 375 kts 139°
2026-04-25 03:42 37.15320 -121.58938 17730 ft 380 kts 139°
2026-04-25 03:42 37.13343 -121.56708 18361 ft 385 kts 139°
2026-04-25 03:42 37.11342 -121.54448 18920 ft 390 kts 140°
2026-04-25 03:42 37.09343 -121.52191 19496 ft 394 kts 140°
2026-04-25 03:43 37.07292 -121.49880 20054 ft 399 kts 140°
2026-04-25 03:43 37.05208 -121.47549 20624 ft 404 kts 141°
2026-04-25 03:43 37.03074 -121.45232 21195 ft 408 kts 142°
2026-04-25 03:43 37.00902 -121.42923 21782 ft 412 kts 143°
2026-04-25 03:44 36.98695 -121.40600 22365 ft 417 kts 143°
2026-04-25 03:44 36.96467 -121.38254 22941 ft 421 kts 143°
2026-04-25 03:44 36.94219 -121.35879 23505 ft 425 kts 143°
2026-04-25 03:44 36.91953 -121.33472 23944 ft 430 kts 144°
2026-04-25 03:45 36.89659 -121.31031 24336 ft 436 kts 144°
2026-04-25 03:45 36.87368 -121.28593 24758 ft 441 kts 144°
2026-04-25 03:45 36.85020 -121.26100 25192 ft 445 kts 144°
2026-04-25 03:45 36.82651 -121.23588 25630 ft 449 kts 144°
2026-04-25 03:46 36.80261 -121.21054 26076 ft 453 kts 144°
2026-04-25 03:46 36.77851 -121.18497 26483 ft 457 kts 144°
2026-04-25 03:46 36.75419 -121.15922 26851 ft 461 kts 145°
2026-04-25 03:46 36.72959 -121.13323 27237 ft 466 kts 145°
2026-04-25 03:47 36.70477 -121.10704 27649 ft 469 kts 146°
2026-04-25 03:47 36.67974 -121.08062 28049 ft 473 kts 146°
2026-04-25 03:47 36.66305 -121.06305 28289 ft 476 kts 146°
2026-04-25 03:47 36.62903 -121.02722 28797 ft 481 kts 146°
2026-04-25 03:48 36.61209 -121.00940 29044 ft 483 kts 146°
2026-04-25 03:48 36.57780 -120.97370 29485 ft 487 kts 147°
2026-04-25 03:48 36.55156 -120.94691 29846 ft 490 kts 147°
2026-04-25 03:48 36.52498 -120.92009 30157 ft 494 kts 147°
2026-04-25 03:49 36.49823 -120.89317 30530 ft 496 kts 147°
2026-04-25 03:49 36.47137 -120.86609 30937 ft 497 kts 147°
2026-04-25 03:49 36.45362 -120.84814 31196 ft 499 kts 147°
2026-04-25 03:49 36.42668 -120.82085 31583 ft 500 kts 147°
2026-04-25 03:50 36.39975 -120.79351 32079 ft 499 kts 147°
2026-04-25 03:50 36.37301 -120.76635 32656 ft 495 kts 147°
2026-04-25 03:50 36.34643 -120.73937 33234 ft 492 kts 148°
2026-04-25 03:50 36.32001 -120.71262 33808 ft 489 kts 148°
2026-04-25 03:51 36.29374 -120.68612 34299 ft 486 kts 148°
2026-04-25 03:51 36.26758 -120.65976 34696 ft 484 kts 148°
2026-04-25 03:51 36.24141 -120.63343 34904 ft 485 kts 149°
2026-04-25 03:51 36.21539 -120.60727 34947 ft 477 kts 148°
2026-04-25 03:52 36.16440 -120.55601 34955 ft 470 kts 149°
2026-04-25 03:52 36.11401 -120.50550 34942 ft 470 kts 149°
2026-04-25 03:53 36.06323 -120.45465 34947 ft 470 kts 149°
2026-04-25 03:53 36.01239 -120.40389 34949 ft 470 kts 149°
2026-04-25 03:54 35.96156 -120.35316 34947 ft 470 kts 149°
2026-04-25 03:54 35.91102 -120.30270 34938 ft 471 kts 149°
2026-04-25 03:55 35.85935 -120.25355 34943 ft 463 kts 157°
2026-04-25 03:55 35.80454 -120.21217 34948 ft 462 kts 157°
2026-04-25 03:56 35.74973 -120.17074 34942 ft 462 kts 158°
2026-04-25 03:56 35.69529 -120.12975 34949 ft 462 kts 157°
2026-04-25 03:57 35.64049 -120.08855 34967 ft 462 kts 157°
2026-04-25 03:57 35.58570 -120.04729 34928 ft 462 kts 157°
2026-04-25 03:58 35.53096 -120.00603 34953 ft 461 kts 158°
2026-04-25 03:58 35.47628 -119.96480 34964 ft 461 kts 158°
2026-04-25 03:59 35.42205 -119.92394 34954 ft 460 kts 158°
2026-04-25 03:59 35.36744 -119.88298 34951 ft 460 kts 158°
2026-04-25 04:00 35.31288 -119.84219 34961 ft 459 kts 158°
2026-04-25 04:00 35.25993 -119.79739 34953 ft 467 kts 152°
2026-04-25 04:01 35.20834 -119.74903 34928 ft 467 kts 152°
2026-04-25 04:01 35.15658 -119.70066 34735 ft 471 kts 152°
2026-04-25 04:02 35.13045 -119.67628 34133 ft 473 kts 152°
2026-04-25 04:02 35.10419 -119.65181 33192 ft 479 kts 152°
2026-04-25 04:02 35.07817 -119.62763 32866 ft 471 kts 151°
2026-04-25 04:02 35.05213 -119.60326 32726 ft 459 kts 151°
2026-04-25 04:03 35.02750 -119.58018 32547 ft 447 kts 151°
2026-04-25 04:03 35.00311 -119.55735 32263 ft 439 kts 151°
2026-04-25 04:03 34.97897 -119.53491 31880 ft 434 kts 152°
2026-04-25 04:03 34.95503 -119.51279 31357 ft 430 kts 152°
2026-04-25 04:04 34.93123 -119.49088 30814 ft 427 kts 151°
2026-04-25 04:04 34.90759 -119.46911 30282 ft 424 kts 151°
2026-04-25 04:04 34.88401 -119.44765 29740 ft 421 kts 151°
2026-04-25 04:04 34.86058 -119.42661 29038 ft 417 kts 151°
2026-04-25 04:05 34.83727 -119.40589 28377 ft 413 kts 151°
2026-04-25 04:05 34.81415 -119.38541 27728 ft 409 kts 151°
2026-04-25 04:05 34.79156 -119.36540 27089 ft 406 kts 151°
2026-04-25 04:05 34.76885 -119.34524 26446 ft 402 kts 151°
2026-04-25 04:06 34.74635 -119.32523 25825 ft 399 kts 151°
2026-04-25 04:06 34.72396 -119.30545 25277 ft 397 kts 151°
2026-04-25 04:06 34.70148 -119.28583 24864 ft 397 kts 151°
2026-04-25 04:06 34.67903 -119.26635 24443 ft 395 kts 151°
2026-04-25 04:07 34.65672 -119.24699 24042 ft 394 kts 152°
2026-04-25 04:07 34.63440 -119.22761 23571 ft 395 kts 151°
2026-04-25 04:07 34.61196 -119.20821 23003 ft 396 kts 151°
2026-04-25 04:07 34.58967 -119.18903 22687 ft 389 kts 151°
2026-04-25 04:08 34.56746 -119.16992 22043 ft 392 kts 151°
2026-04-25 04:08 34.54556 -119.15087 21839 ft 383 kts 150°
2026-04-25 04:08 34.52417 -119.13196 21507 ft 379 kts 150°
2026-04-25 04:08 34.50300 -119.11315 20758 ft 387 kts 150°
2026-04-25 04:09 34.48116 -119.09374 20150 ft 390 kts 149°
2026-04-25 04:09 34.45945 -119.07445 19812 ft 384 kts 149°
2026-04-25 04:09 34.43799 -119.05540 19385 ft 381 kts 149°
2026-04-25 04:09 34.41654 -119.03659 18948 ft 379 kts 150°
2026-04-25 04:10 34.39522 -119.01810 18524 ft 376 kts 150°
2026-04-25 04:10 34.37400 -118.99983 18095 ft 372 kts 150°
2026-04-25 04:10 34.35299 -118.98174 17620 ft 369 kts 150°
2026-04-25 04:10 34.33247 -118.96395 17188 ft 366 kts 149°
2026-04-25 04:11 34.29186 -118.92735 16253 ft 362 kts 148°
2026-04-25 04:11 34.27187 -118.90905 15815 ft 359 kts 148°
2026-04-25 04:11 34.25205 -118.89091 15377 ft 356 kts 148°
2026-04-25 04:12 34.23240 -118.87289 14958 ft 353 kts 148°
2026-04-25 04:12 34.21295 -118.85495 14556 ft 350 kts 147°
2026-04-25 04:12 34.19368 -118.83712 14155 ft 348 kts 147°
2026-04-25 04:12 34.17470 -118.81956 13953 ft 339 kts 147°
2026-04-25 04:13 34.15644 -118.80218 13630 ft 331 kts 145°
2026-04-25 04:13 34.13929 -118.78438 13156 ft 328 kts 142°
2026-04-25 04:13 34.12245 -118.76595 12662 ft 325 kts 142°
2026-04-25 04:13 34.10592 -118.74749 12168 ft 322 kts 141°
2026-04-25 04:14 34.08960 -118.72924 11714 ft 318 kts 141°
2026-04-25 04:14 34.07343 -118.71131 11248 ft 313 kts 141°
2026-04-25 04:14 34.05757 -118.69390 11011 ft 303 kts 141°
2026-04-25 04:14 34.04271 -118.67629 10644 ft 299 kts 131°
2026-04-25 04:15 34.03194 -118.65489 10280 ft 299 kts 114°
2026-04-25 04:15 34.02653 -118.63098 9962 ft 295 kts 98°
2026-04-25 04:15 34.02433 -118.60683 9640 ft 293 kts 97°
2026-04-25 04:15 34.02209 -118.58258 9347 ft 290 kts 97°
2026-04-25 04:16 34.01982 -118.55851 9051 ft 288 kts 97°
2026-04-25 04:16 34.01753 -118.53443 8499 ft 294 kts 97°
2026-04-25 04:16 34.01517 -118.50980 7992 ft 298 kts 97°
2026-04-25 04:16 34.01282 -118.48507 7705 ft 294 kts 97°
2026-04-25 04:17 34.01091 -118.46096 7549 ft 284 kts 90°
2026-04-25 04:17 34.01339 -118.43765 7253 ft 281 kts 78°
2026-04-25 04:17 34.01737 -118.41458 6886 ft 281 kts 78°
2026-04-25 04:17 34.02137 -118.39166 6518 ft 274 kts 78°
2026-04-25 04:18 34.02512 -118.37014 6182 ft 258 kts 78°
2026-04-25 04:18 34.02846 -118.34942 6006 ft 246 kts 82°
2026-04-25 04:18 34.03081 -118.32945 5953 ft 238 kts 83°
2026-04-25 04:18 34.03283 -118.30963 5627 ft 238 kts 84°
2026-04-25 04:19 34.03479 -118.28995 5354 ft 235 kts 84°
2026-04-25 04:19 34.03678 -118.27056 5086 ft 232 kts 84°
2026-04-25 04:19 34.03880 -118.25138 4808 ft 229 kts 84°
2026-04-25 04:19 34.04081 -118.23241 4518 ft 226 kts 83°
2026-04-25 04:20 34.04284 -118.21369 4217 ft 225 kts 83°
2026-04-25 04:20 34.04489 -118.19511 4027 ft 224 kts 84°
2026-04-25 04:20 34.04694 -118.17654 4006 ft 228 kts 83°
2026-04-25 04:20 34.04903 -118.15763 4002 ft 228 kts 83°
2026-04-25 04:21 34.05111 -118.13871 3999 ft 228 kts 83°
2026-04-25 04:21 34.05250 -118.11978 3911 ft 226 kts 97°
2026-04-25 04:21 34.04702 -118.10294 3764 ft 210 kts 131°
2026-04-25 04:21 34.03540 -118.09375 3569 ft 198 kts 163°
2026-04-25 04:22 34.02201 -118.09088 3264 ft 196 kts 186°
2026-04-25 04:22 34.00984 -118.09723 3028 ft 193 kts 222°
2026-04-25 04:22 34.00067 -118.10926 3001 ft 196 kts 230°
2026-04-25 04:22 33.99207 -118.12213 3001 ft 197 kts 231°
2026-04-25 04:23 33.98365 -118.13495 3000 ft 198 kts 231°
2026-04-25 04:23 33.97766 -118.14969 2996 ft 198 kts 258°
2026-04-25 04:23 33.97585 -118.16621 3013 ft 199 kts 262°
2026-04-25 04:23 33.97425 -118.18277 3012 ft 199 kts 263°
2026-04-25 04:24 33.97261 -118.19928 3038 ft 198 kts 263°
2026-04-25 04:24 33.97104 -118.21496 3010 ft 179 kts 262°
2026-04-25 04:24 33.96957 -118.22951 2909 ft 172 kts 262°
2026-04-25 04:24 33.96816 -118.24355 2763 ft 167 kts 262°
2026-04-25 04:25 33.96682 -118.25686 2529 ft 152 kts 261°
2026-04-25 04:25 33.96559 -118.26904 2341 ft 143 kts 261°
2026-04-25 04:25 33.96441 -118.28076 2143 ft 139 kts 261°
2026-04-25 04:25 33.96325 -118.29214 1962 ft 138 kts 262°
2026-04-25 04:26 33.96209 -118.30363 1776 ft 138 kts 259°
2026-04-25 04:26 33.96094 -118.31500 1588 ft 136 kts 259°
2026-04-25 04:26 33.95979 -118.32630 1406 ft 136 kts 260°
2026-04-25 04:26 33.95865 -118.33757 1230 ft 136 kts 260°
2026-04-25 04:27 33.95751 -118.34881 1054 ft 135 kts 261°
2026-04-25 04:27 33.95641 -118.35995 856 ft 134 kts 262°
2026-04-25 04:27 33.95526 -118.37100 682 ft 132 kts 262°
2026-04-25 04:27 33.95420 -118.38196 511 ft 132 kts 262°
2026-04-25 04:28 33.95306 -118.39282 306 ft 132 kts 260°
2026-04-25 04:28 33.95193 -118.40383 113 ft 132 kts 261°
2026-04-25 04:28 33.95088 -118.41377 94 ft 100 kts 263°
2026-04-25 04:28 33.95027 -118.41963 94 ft 35 kts 261°
2026-04-25 04:29 33.94984 -118.42123 94 ft 2 kts 240°
2026-04-25 04:29 33.94971 -118.42148 95 ft 5 kts 238°
2026-04-25 04:29 33.94947 -118.42184 96 ft 7 kts 229°
2026-04-25 04:29 33.94909 -118.42230 96 ft 9 kts 221°
2026-04-25 04:30 33.94854 -118.42272 98 ft 10 kts 200°
2026-04-25 04:30 33.94782 -118.42283 96 ft 12 kts 178°
2026-04-25 04:30 33.94692 -118.42248 94 ft 15 kts 125°
2026-04-25 04:30 33.94695 -118.42111 94 ft 18 kts 82°
2026-04-25 04:31 33.94712 -118.41953 94 ft 20 kts 83°
2026-04-25 04:31 33.94729 -118.41775 96 ft 23 kts 83°
2026-04-25 04:31 33.94748 -118.41578 97 ft 24 kts 83°
2026-04-25 04:31 33.94779 -118.41370 95 ft 26 kts 75°
2026-04-25 04:32 33.94806 -118.41145 96 ft 28 kts 83°
2026-04-25 04:32 33.94828 -118.40929 97 ft 17 kts 83°
2026-04-25 04:32 33.94845 -118.40773 95 ft 20 kts 82°
2026-04-25 04:32 33.94855 -118.40641 94 ft 13 kts 97°
2026-04-25 04:33 33.94774 -118.40585 94 ft 16 kts 169°
2026-04-25 04:33 33.94705 -118.40574 95 ft 6 kts 173°
2026-04-25 04:33 33.94663 -118.40553 95 ft 6 kts 128°
2026-04-25 04:33 33.94656 -118.40513 95 ft 3 kts 95°
2026-04-25 04:34 33.94654 -118.40487 94 ft 0 kts 95°
2026-04-25 04:34 33.94653 -118.40480 93 ft 0 kts 96°
2026-04-25 04:34 33.94653 -118.40478 93 ft 0 kts 96°